"Pseudo-MPEC" for X56114

Created 2018 May 20 2:18:22 UT using Find_Orb

Click here for an explanation of pseudo-MPECs

 
 Astrometry: 
     X56114   C2018 05 12y'AstrometryuVtov;,?*]_cwlU=q4L!+2DLAj';p'Bk7p;heG-pD29
     X56114   C2018 05 12^m3[9hRd#%ebk0ifTredacted;p'$w#psee5N1Wm2d=p1PRK?*ivD29
     X56114   C2018 05 12cU^T?MAsxxuZHdb3AUE`s;q#GvB,frou1$:8yg6U?25APQTNEOCPD29

Station data:
(D29) Purple Mountain Observatory, XuYi Station  (N32.734366 E118.463900)
   China.  Observers H. B. Zhao, B. Li, G. Zhaori, R. Q. Hong, L. F. Hu.
   Measurers H. B. Zhao, B. Li. H. Lu, G. Zhaori. 1.04-m f/1.8 Schmidt + CCD.

Orbital elements:  X56114
   Perihelion 2018 Apr 23.583010 +/- 43.4 TT = 13:59:32 (JD 2458232.083010)
Epoch 2018 May 13.0 TT = JDT 2458251.5   Earth MOID: 0.4438   Ma: 0.0619
M   4.89700 +/- 29                  (J2000 ecliptic)          AutoNEOCP
n   0.25220211 +/- 0.316            Peri.  344.73677 +/- 60
a   2.48105790 +/- 2.07             Node   223.42224 +/- 34
e   0.4168176 +/- 0.257             Incl.    7.57309 +/- 4.2
P   3.91                   H 20.0   G  0.15   U 12.0  SR
q 1.44690910 +/- 0.517    Q 3.51520670 +/- 49.4
From 3 observations 2018 May 12 (48.4 min); mean residual 0".05
Residuals in arcseconds: 
180512 D29  .03-  .05+    180512 D29  .06+  .09-    180512 D29  .03-  .05+    

Ephemerides (geocentric):
Date (UTC) HH   RA              Dec         delta   r     elong  mag " sig PA
---- -- -- --  ------------   ------------  ------ ------ -----  --- ---- ---
2018 05 20 02  13 17 27.433   -07 13 54.65  .53199 1.4673 141.8 20.7 964' 173
2018 05 20 03  13 17 30.533   -07 13 35.91  .53219 1.4674 141.8 20.7 967' 173
2018 05 20 04  13 17 33.635   -07 13 17.21  .53238 1.4675 141.8 20.7 970' 173
2018 05 20 05  13 17 36.741   -07 12 58.56  .53258 1.4675 141.7 20.7 972' 173
2018 05 20 06  13 17 39.849   -07 12 39.96  .53277 1.4676 141.7 20.7 975' 173
2018 05 20 07  13 17 42.959   -07 12 21.40  .53297 1.4676 141.7 20.7 977' 173
2018 05 20 08  13 17 46.073   -07 12 02.88  .53316 1.4677 141.6 20.7 980' 173
2018 05 20 09  13 17 49.189   -07 11 44.41  .53336 1.4678 141.6 20.7 982' 173
2018 05 20 10  13 17 52.307   -07 11 25.98  .53355 1.4678 141.6 20.7 984' 173
2018 05 20 11  13 17 55.429   -07 11 07.60  .53375 1.4679 141.5 20.7 987' 173
2018 05 20 12  13 17 58.553   -07 10 49.26  .53395 1.4680 141.5 20.7 989' 173
2018 05 20 13  13 18 01.680   -07 10 30.96  .53414 1.4680 141.5 20.7 991' 173
2018 05 20 14  13 18 04.810   -07 10 12.71  .53434 1.4681 141.5 20.7 994' 173
2018 05 20 15  13 18 07.942   -07 09 54.51  .53454 1.4682 141.4 20.7 996' 173
2018 05 20 16  13 18 11.077   -07 09 36.35  .53473 1.4682 141.4 20.7 998' 173
2018 05 20 17  13 18 14.215   -07 09 18.23  .53493 1.4683 141.4 20.7  17d 173
2018 05 20 18  13 18 17.356   -07 09 00.16  .53513 1.4684 141.3 20.7  17d 173
2018 05 20 19  13 18 20.499   -07 08 42.14  .53533 1.4684 141.3 20.7  17d 173
2018 05 20 20  13 18 23.645   -07 08 24.15  .53552 1.4685 141.3 20.7  17d 173
2018 05 20 21  13 18 26.793   -07 08 06.22  .53572 1.4686 141.2 20.7  17d 173
2018 05 20 22  13 18 29.944   -07 07 48.32  .53592 1.4686 141.2 20.7  17d 173
2018 05 20 23  13 18 33.098   -07 07 30.48  .53612 1.4687 141.2 20.7  17d 173
2018 05 21 00  13 18 36.255   -07 07 12.67  .53632 1.4687 141.2 20.7  17d 173
2018 05 21 01  13 18 39.414   -07 06 54.91  .53652 1.4688 141.1 20.7  17d 173
2018 05 21 02  13 18 42.576   -07 06 37.20  .53672 1.4689 141.1 20.7  17d 173
2018 05 21 03  13 18 45.741   -07 06 19.53  .53692 1.4689 141.1 20.7  17d 173
2018 05 21 04  13 18 48.908   -07 06 01.90  .53712 1.4690 141.0 20.7  17d 173
2018 05 21 05  13 18 52.078   -07 05 44.32  .53732 1.4691 141.0 20.7  17d 173
2018 05 21 06  13 18 55.251   -07 05 26.79  .53752 1.4691 141.0 20.7  17d 173
2018 05 21 07  13 18 58.426   -07 05 09.30  .53772 1.4692 140.9 20.7  17d 173
2018 05 21 08  13 19 01.604   -07 04 51.85  .53792 1.4693 140.9 20.7  17d 173
2018 05 21 09  13 19 04.784   -07 04 34.44  .53812 1.4693 140.9 20.7  17d 173
2018 05 21 10  13 19 07.968   -07 04 17.09  .53832 1.4694 140.9 20.7  17d 173
2018 05 21 11  13 19 11.154   -07 03 59.77  .53852 1.4695 140.8 20.7  17d 173
2018 05 21 12  13 19 14.342   -07 03 42.50  .53872 1.4695 140.8 20.7  18d 173
2018 05 21 13  13 19 17.533   -07 03 25.28  .53892 1.4696 140.8 20.7  18d 173
2018 05 21 14  13 19 20.727   -07 03 08.10  .53912 1.4697 140.7 20.7  18d 173
2018 05 21 15  13 19 23.924   -07 02 50.96  .53933 1.4697 140.7 20.7  18d 173
2018 05 21 16  13 19 27.123   -07 02 33.87  .53953 1.4698 140.7 20.7  18d 173
2018 05 21 17  13 19 30.325   -07 02 16.82  .53973 1.4699 140.6 20.7  18d 173
2018 05 21 18  13 19 33.529   -07 01 59.82  .53993 1.4699 140.6 20.7  18d 173
2018 05 21 19  13 19 36.736   -07 01 42.86  .54013 1.4700 140.6 20.7  18d 173
2018 05 21 20  13 19 39.946   -07 01 25.95  .54034 1.4701 140.6 20.7  18d 173
2018 05 21 21  13 19 43.158   -07 01 09.08  .54054 1.4701 140.5 20.7  18d 173
2018 05 21 22  13 19 46.373   -07 00 52.25  .54074 1.4702 140.5 20.7  18d 173
2018 05 21 23  13 19 49.591   -07 00 35.47  .54095 1.4703 140.5 20.7  18d 173
2018 05 22 00  13 19 52.811   -07 00 18.73  .54115 1.4703 140.4 20.7  18d 173
2018 05 22 01  13 19 56.034   -07 00 02.04  .54136 1.4704 140.4 20.7  19d 173